Weather History for Seward, AK

Change the Weather History Date:

Wednesday, March 20, 2013

  Actual Average Record
Temperature  
Mean Temperature 23 °F -  
Max Temperature 27 °F 37 °F 46 °F (1988)
Min Temperature 19 °F 27 °F 3 °F (2007)
Degree Days  
Heating Degree Days 42    
Moisture  
Dew Point -2 °F    
Average Humidity 34    
Maximum Humidity 37    
Minimum Humidity 26    
Precipitation  
Precipitation 0.00 in - - ()
Sea Level Pressure  
Sea Level Pressure 29.83 in    
Wind  
Wind Speed 19 mph (NNW)    
Max Wind Speed 24 mph    
Max Gust Speed 43 mph    
Visibility 10 miles    
Events      
Averages and records for this station are not official NWS values.
T = Trace of Precipitation, MM = Missing Value Source: NWS Daily Summary

Daily Weather History Graph

Daily Weather History Graph

Search for Another Location

Airport:

Trip Planner

Search our weather history database for the weather conditions in past years. The results will help you decide how hot, cold, wet, or windy it might be!

Date:

Astronomy

Mar. 20, 2013 Rise Set
Actual Time 7:57 AM AKDT 8:13 PM AKDT
Civil Twilight 7:16 AM AKDT 8:55 PM AKDT
Nautical Twilight 6:25 AM AKDT 9:45 PM AKDT
Astronomical Twilight 5:31 AM AKDT 10:41 PM AKDT
Moon 12:33 PM AKDT (3/20) 5:09 AM AKDT (3/20)
Length of Visible Light 13h 39m
Length of Day
12h 15m
First Quarter, 60% of the Moon is Illuminated
Mar 20
First Quarter
Mar 27
Full
Apr 2
Last Quarter
Apr 10
New
Apr 18
First Quarter

Hourly Weather History & Observations

Time (AKDT) Temp. Windchill Dew Point Humidity Pressure Visibility Wind Dir Wind Speed Gust Speed Precip Events Conditions
12:53 AM 23.0 °F 11.1 °F -0.9 °F 35% 29.79 in 10.0 mi North 12.7 mph 25.3 mph N/A   Clear
1:53 AM 21.9 °F 5.5 °F -0.9 °F 37% 29.80 in 10.0 mi NNW 24.2 mph 32.2 mph N/A   Clear
2:53 AM 21.9 °F 6.5 °F -0.9 °F 37% 29.79 in 10.0 mi NNW 20.7 mph 31.1 mph N/A   Clear
3:53 AM 21.9 °F 6.9 °F -2.0 °F 35% 29.78 in 10.0 mi NNW 19.6 mph 36.8 mph N/A   Clear
4:53 AM 21.0 °F 5.7 °F -2.9 °F 35% 29.79 in 10.0 mi NW 19.6 mph 32.2 mph N/A   Clear
5:53 AM 21.0 °F 5.4 °F -2.9 °F 35% 29.80 in 9.0 mi NW 20.7 mph 35.7 mph N/A   Clear
6:53 AM 19.9 °F 3.5 °F -2.9 °F 37% 29.80 in 10.0 mi NNW 21.9 mph 34.5 mph N/A   Clear
7:53 AM 19.9 °F 4.3 °F -2.9 °F 37% 29.81 in 10.0 mi NW 19.6 mph 33.4 mph N/A   Clear
8:53 AM 19.9 °F 3.2 °F -2.9 °F 37% 29.79 in 9.0 mi NNW 23.0 mph 38.0 mph N/A   Clear
9:53 AM 21.9 °F 6.5 °F -2.9 °F 34% 29.80 in 10.0 mi NW 20.7 mph 34.5 mph N/A   Clear
10:53 AM 21.9 °F 6.9 °F -2.0 °F 35% 29.81 in 10.0 mi NW 19.6 mph 27.6 mph N/A   Clear
11:53 AM 24.1 °F 9.0 °F -2.9 °F 31% 29.83 in 10.0 mi NNW 21.9 mph 39.1 mph N/A   Clear
12:53 PM 24.1 °F 10.1 °F -2.9 °F 31% 29.82 in 10.0 mi NW 18.4 mph 36.8 mph N/A   Clear
1:53 PM 26.1 °F 12.0 °F -2.9 °F 28% 29.83 in 10.0 mi NW 20.7 mph 33.4 mph N/A   Clear
2:53 PM 27.0 °F 12.5 °F -4.0 °F 26% 29.83 in 10.0 mi NW 23.0 mph 41.4 mph N/A   Clear
3:53 PM 27.0 °F 12.5 °F -2.0 °F 29% 29.82 in 10.0 mi NW 23.0 mph 42.6 mph N/A   Clear
4:53 PM 27.0 °F 12.5 °F -0.0 °F 31% 29.83 in 10.0 mi NW 23.0 mph 39.1 mph N/A   Clear
5:53 PM 27.0 °F 15.2 °F -0.9 °F 30% 29.83 in 10.0 mi NNW 15.0 mph 25.3 mph N/A   Clear
6:53 PM 26.1 °F 12.0 °F -0.9 °F 31% 29.84 in 10.0 mi NW 20.7 mph 34.5 mph N/A   Clear
7:53 PM 25.0 °F 10.9 °F -0.9 °F 33% 29.84 in 10.0 mi NNW 19.6 mph 29.9 mph N/A   Clear
8:53 PM 25.0 °F 12.2 °F -0.9 °F 33% 29.86 in 10.0 mi NW 16.1 mph 24.2 mph N/A   Clear
9:53 PM 24.1 °F 11.0 °F 1.0 °F 37% 29.89 in 10.0 mi North 16.1 mph - N/A   Clear
10:53 PM 23.0 °F 11.7 °F -0.0 °F 37% 29.91 in 10.0 mi North 11.5 mph - N/A   Clear
11:53 PM 24.1 °F 11.5 °F 1.0 °F 37% 29.93 in 10.0 mi North 15.0 mph - N/A   Clear